Broomfield, CO

1:42 AM MST on February 25, 2018 (GMT -0700)
Jeffco

Weather History for KBJC - November, 2011

Change the Weather History Date:

Wednesday, November 16, 2011

  Actual Average Record
Temperature  
Mean Temperature 28 °F -  
Max Temperature 39 °F 50 °F 80 °F (2016)
Min Temperature 17 °F 30 °F 3 °F (2014)
Degree Days  
Heating Degree Days 37    
Moisture  
Dew Point 10 °F    
Average Humidity 52    
Maximum Humidity 74    
Minimum Humidity 24    
Precipitation  
Precipitation 0.00 in - - ()
Sea Level Pressure  
Sea Level Pressure 30.14 in    
Wind  
Wind Speed 7 mph (NE)    
Max Wind Speed 20 mph    
Max Gust Speed 33 mph    
Visibility 12 miles    
Events      
Averages and records for this station are not official NWS values.
T = Trace of Precipitation, MM = Missing Value Source: NWS Daily Summary

Daily Weather History Graph

Daily Weather History Graph

Search for Another Location

Airport or City:

Trip Planner

Search our weather history database for the weather conditions in past years. The results will help you decide how hot, cold, wet, or windy it might be!

Date:

Astronomy

Nov. 16, 2011 Rise Set
Actual Time 6:46 AM MST 4:43 PM MST
Civil Twilight 6:17 AM MST 5:12 PM MST
Nautical Twilight 5:44 AM MST 5:45 PM MST
Astronomical Twilight 5:12 AM MST 6:17 PM MST
Moon 10:00 PM MST (11/16) 11:23 AM MST (11/16)
Length of Visible Light 10h 55m
Length of Day
9h 57m
Waning Gibbous, 69% of the Moon is Illuminated
Nov 16
Waning Gibbous
Nov 18
Last Quarter
Nov 24
New
Dec 2
First Quarter
Dec 10
Full

Hourly Weather History & Observations

Time (MST) Temp. Windchill Dew Point Humidity Pressure Visibility Wind Dir Wind Speed Gust Speed Precip Events Conditions
12:07 AM 26.6 °F 16.2 °F 17.6 °F 69% 30.02 in 10.0 mi North 11.5 mph - N/A   Clear
12:28 AM 24.8 °F 14.0 °F 17.6 °F 74% 30.03 in 10.0 mi North 11.5 mph - N/A   Clear
12:48 AM 24.8 °F 15.3 °F 17.6 °F 74% 30.04 in 10.0 mi North 9.2 mph - N/A   Clear
1:07 AM 24.8 °F 16.1 °F 15.8 °F 69% 30.05 in 10.0 mi North 8.1 mph - N/A   Clear
1:28 AM 24.8 °F 15.3 °F 14.0 °F 64% 30.05 in 10.0 mi NNE 9.2 mph - N/A   Scattered Clouds
1:48 AM 23.0 °F 13.9 °F 14.0 °F 68% 30.06 in 10.0 mi NNE 8.1 mph - N/A   Clear
2:08 AM 23.0 °F 17.0 °F 12.2 °F 63% 30.06 in 10.0 mi NE 4.6 mph - N/A   Clear
2:28 AM 23.0 °F 15.8 °F 12.2 °F 63% 30.07 in 10.0 mi NNE 5.8 mph - N/A   Clear
2:48 AM 21.2 °F 16.4 °F 12.2 °F 68% 30.06 in 10.0 mi NE 3.5 mph - N/A   Clear
3:08 AM 23.0 °F - 10.4 °F 59% 30.07 in 10.0 mi Calm Calm - N/A   Clear
3:28 AM 21.2 °F - 10.4 °F 63% 30.06 in 10.0 mi Calm Calm - N/A   Clear
3:48 AM 21.2 °F - 12.2 °F 68% 30.08 in 10.0 mi Calm Calm - N/A   Clear
4:08 AM 21.2 °F - 10.4 °F 63% 30.07 in 10.0 mi Calm Calm - N/A   Clear
4:28 AM 21.2 °F - 10.4 °F 63% 30.07 in 10.0 mi Calm Calm - N/A   Clear
4:48 AM 19.4 °F - 10.4 °F 68% 30.08 in 10.0 mi Calm Calm - N/A   Clear
5:49 AM 17.6 °F - 10.4 °F 73% 30.09 in 25.0 mi Calm Calm - N/A   Clear
6:49 AM 17.6 °F 12.3 °F 10.4 °F 73% 30.12 in 50.0 mi South 3.5 mph - N/A   Partly Cloudy
7:47 AM 21.2 °F 13.6 °F 12.2 °F 68% 30.13 in 50.0 mi SW 5.8 mph - N/A   Partly Cloudy
8:01 AM 28.4 °F 15.4 °F 12.2 °F 51% 30.13 in 50.0 mi West 19.6 mph 31.1 mph N/A   Partly Cloudy
8:45 AM 35.6 °F 25.9 °F 6.8 °F 30% 30.16 in 50.0 mi North 16.1 mph 33.4 mph N/A   Partly Cloudy
9:50 AM 30.2 °F 21.9 °F 14.0 °F 51% 30.21 in 50.0 mi North 9.2 mph - N/A   Scattered Clouds
10:45 AM 32.0 °F 24.2 °F 12.2 °F 44% 30.24 in 50.0 mi North 9.2 mph - N/A   Scattered Clouds
11:53 AM 33.8 °F 26.4 °F 12.2 °F 41% 30.23 in 50.0 mi NNE 9.2 mph - N/A   Partly Cloudy
12:50 PM 37.4 °F 31.4 °F 8.6 °F 30% 30.21 in 40.0 mi ENE 8.1 mph - N/A   Partly Cloudy
1:45 PM 37.4 °F 31.4 °F 8.6 °F 30% 30.20 in 40.0 mi East 8.1 mph - N/A   Partly Cloudy
2:46 PM 39.2 °F 33.6 °F 5.0 °F 24% 30.19 in 30.0 mi East 8.1 mph - N/A   Partly Cloudy
3:45 PM 37.4 °F 28.9 °F 3.2 °F 24% 30.21 in 40.0 mi East 13.8 mph - N/A   Partly Cloudy
4:45 PM 32.0 °F 24.2 °F 3.2 °F 30% 30.22 in 40.0 mi East 9.2 mph - N/A   Partly Cloudy
5:53 PM 30.2 °F 24.3 °F 3.2 °F 32% 30.23 in 20.0 mi ESE 5.8 mph - N/A   Clear
6:47 PM 28.4 °F 22.2 °F 1.4 °F 31% 30.24 in 20.0 mi SE 5.8 mph - N/A   Clear
7:53 PM 28.4 °F 24.6 °F 1.4 °F 31% 30.23 in 20.0 mi Variable 3.5 mph - N/A   Partly Cloudy
8:45 PM 28.4 °F - 6.8 °F 40% 30.21 in 20.0 mi Calm Calm - N/A   Partly Cloudy
9:47 PM 28.4 °F - 6.8 °F 40% 30.21 in 20.0 mi Calm Calm - N/A   Partly Cloudy
10:07 PM 28.4 °F - 8.6 °F 43% 30.21 in 10.0 mi Calm Calm - N/A   Clear
10:27 PM 30.2 °F - 10.4 °F 44% 30.20 in 10.0 mi Calm Calm - N/A   Clear
10:47 PM 28.4 °F 24.6 °F 12.2 °F 51% 30.21 in 10.0 mi WSW 3.5 mph - N/A   Clear
11:07 PM 28.4 °F - 12.2 °F 51% 30.19 in 10.0 mi Calm Calm - N/A   Clear
11:27 PM 28.4 °F - 12.2 °F 51% 30.19 in 10.0 mi Calm Calm - N/A   Clear
11:46 PM 30.2 °F 22.6 °F 12.2 °F 47% 30.18 in 10.0 mi SE 8.1 mph - N/A   Clear